This is the latest recevied weather packets stored in our database for station/object G6UYG-13. If no packets are shown the sender has not sent any weather packets the latest 10 day(s).
| Time | Temp. | Humidity | Pressure | Rain* | Wind** | Luminosity | Snow |
|---|---|---|---|---|---|---|---|
| 1777973975 | 11.11° C | 75% | 1013.2 hPa | 0 mm | - | 91 W/m² | - |
| 1777973555 | 11.67° C | 75% | 1013.2 hPa | 0 mm | - | 107 W/m² | - |
| 1777973135 | 11.67° C | 75% | 1013.2 hPa | 0 mm | - | 158 W/m² | - |
| 1777972715 | 11.67° C | 74% | 1013.1 hPa | 0 mm | - | 260 W/m² | - |
| 1777972295 | 11.67° C | 73% | 1013.1 hPa | 0 mm | - | 77 W/m² | - |
| 1777971875 | 11.67° C | 72% | 1013 hPa | 0 mm | - | 95 W/m² | - |
| 1777971640 | 12.22° C | 70% | 1013 hPa | 0 mm | - | 104 W/m² | - |
| 1777971455 | 12.22° C | 70% | 1013 hPa | 0 mm | - | 104 W/m² | - |
| 1777971035 | 12.78° C | 69% | 1013.1 hPa | 0 mm | - | 163 W/m² | - |
| 1777970615 | 12.78° C | 68% | 1013.2 hPa | 0 mm | - | 295 W/m² | - |
| 1777970195 | 12.78° C | 67% | 1013.2 hPa | 0 mm | - | 339 W/m² | - |
| 1777969775 | 12.78° C | 67% | 1013.2 hPa | 0 mm | - | 325 W/m² | - |
| 1777969355 | 12.78° C | 68% | 1013.2 hPa | 0 mm | - | 322 W/m² | - |
| 1777968935 | 12.78° C | 70% | 1013.3 hPa | 0 mm | - | 499 W/m² | - |
| 1777968516 | 12.78° C | 70% | 1013.4 hPa | 0 mm | - | 320 W/m² | - |
| 1777968096 | 13.33° C | 69% | 1013.3 hPa | 0 mm | - | 522 W/m² | - |
| 1777967676 | 12.78° C | 70% | 1013.3 hPa | 0 mm | - | 461 W/m² | - |
| 1777967256 | 12.78° C | 71% | 1013.2 hPa | 0 mm | - | 438 W/m² | - |
| 1777966836 | 12.78° C | 71% | 1013.3 hPa | 0 mm | - | 420 W/m² | - |
| 1777966416 | 12.78° C | 72% | 1013.3 hPa | 0 mm | - | 394 W/m² | - |
| 1777965996 | 12.22° C | 73% | 1013.3 hPa | 0 mm | - | 380 W/m² | - |
| 1777965576 | 12.22° C | 74% | 1013.3 hPa | 0 mm | - | 362 W/m² | - |
| 1777965156 | 11.67° C | 74% | 1013.3 hPa | 0 mm | - | 339 W/m² | - |
| 1777964736 | 11.67° C | 74% | 1013.3 hPa | 0 mm | - | 322 W/m² | - |
| 1777964316 | 11.11° C | 74% | 1013.3 hPa | 0 mm | - | 304 W/m² | - |
* Rain latest hour (hover to see other rain measurements)
** Current wind speed in m/s (hover to see current wind gust speed)